Regional Weather Roundup
Issued by NWS

Home | Current Version | Previous Version | Graphics & Text | Print | Product List | Glossary On
Versions: 1 2 3 4 5 6 7 8 9 10 11 12 13 14 15 16 17 18 19 20 21 22 23 24 25 26 27 28 29 30 31 32 33 34 35 36 37 38 39 40 41 42 43 44 45 46 47 48 49 50
000
ASUS43 KMPX 231601
RWRMN
WEATHER ROUNDUP FOR MINNESOTA
NATIONAL WEATHER SERVICE TWIN CITIES/CHANHASSEN MN
1000 AM CST THU FEB 23 2017


NOTE: "FAIR" INDICATES FEW OR NO CLOUDS BELOW 12,000 FEET WITH NO
SIGNIFICANT WEATHER AND/OR OBSTRUCTIONS TO VISIBILITY. N/A MEANS
CURRENT SKY AND/OR WEATHER CONDITIONS ARE NOT AVAILABLE.

MNZ060>063-068>070-231700-
   Twin Cities Metro

CITY           SKY/WX    TMP DP  RH WIND       PRES   REMARKS
TWIN CITIES    CLOUDY    34  25  69 NE9G20    29.93S WCI  27
ST PAUL        CLOUDY    32  26  78 N7        29.95S WCI  26
CRYSTAL        PTSUNNY   34  22  61 NE12      29.93R WCI  25
BLAINE         PTSUNNY   36  27  69 N13       29.94R
LAKEVILLE      CLOUDY    30  27  86 N8        29.92F WCI  23
EDEN PRAIRIE   MOSUNNY   35  25  66 NE9       29.92R WCI  28
SOUTH ST PAUL  CLOUDY    33  27  78 NE5       29.93S WCI  28
LAKE ELMO      CLOUDY    32  28  86 N7        29.94R WCI  26
$$
MNZ001>005-007-008-013>017-022>024-027-028-231700-
   Northwest Minnesota

CITY           SKY/WX    TMP DP  RH WIND       PRES   REMARKS
BEMIDJI        CLOUDY    23  16  73 NW14      30.00S WCI  11
HALLOCK        CLOUDY    25  19  80 N16       30.08R WCI  12
ROSEAU         CLOUDY    23  16  74 N12       30.06R WCI  12
WARROAD        CLOUDY    21  12  68 NW9       30.06S WCI  11
THIEF RVR FALL   N/A    N/A N/A N/A MISG        N/A
CROOKSTON      CLOUDY    28  21  74 NE8       30.06S WCI  20
FOSSTON        CLOUDY    25  19  80 N22       30.03S WCI  10
DETROIT LAKES  CLOUDY    27  21  80 N12G21    30.00S WCI  16
MOORHEAD       CLOUDY    28  21  74 N16G23    30.03R WCI  17
PARK RAPIDS    CLOUDY    25  18  74 N12       29.96F WCI  14
MAHNOMEN       CLOUDY    26  20  77 N18G26    30.00F WCI  12
$$
MNZ006-009>011-018-025>026-231700-
   North Central Minnesota

CITY           SKY/WX    TMP DP  RH WIND       PRES   REMARKS
BAUDETTE       CLOUDY    19   9  65 NW15G22   30.03R WCI   5
FLAG ISLAND    CLOUDY    19  10  68 NW21G26   30.04F WCI   3
INTL FALLS     CLOUDY    21  12  68 NW12      30.00R WCI   9
WASKISH        CLOUDY    23  16  74 NW9       30.02F WCI  13
BIG FORK       CLOUDY    23  16  74 NW8G16    29.98S WCI  14
LONGVILLE      CLOUDY    25  19  80 N6        29.98S WCI  18
CRANE LAKE     CLOUDY    23  16  74 NW7G16    29.99R WCI  15
ORR            CLOUDY    25  16  68 NW7       29.93S WCI  17
COOK           CLOUDY    25  19  80 NW7       29.95S WCI  17
WALKER         CLOUDY    23  16  74 NW14      29.98S WCI  11
$$
MNZ012-019>021-037-231700-
   Northeast Minnesota

CITY           SKY/WX    TMP DP  RH WIND       PRES   REMARKS
DULUTH         CLOUDY    24  21  88 NW9       29.92R WCI  14
ELY            PTSUNNY   25  16  68 NW10G18   29.91F WCI  15
HIBBING        CLOUDY    23  20  88 NW16      29.95R WCI  10
EVELETH        CLOUDY    25  18  77 NW12G17   29.96R WCI  14
DULUTH HARBOR  CLOUDY    28  25  86 NW12      29.97S WCI  18
TWO HARBORS    CLOUDY    30  25  80 NW7       29.91R WCI  23
SILVER BAY     CLOUDY    30  25  80 NW3       29.90R
GRAND MARAIS     N/A     35  20  54 W8        29.90S WCI  29
G MARAIS ARPRT PTSUNNY   27  14  59 NW7G17    29.84S WCI  19
$$
MNZ029>031-032-039>041-046>048-054>057-064-231700-
   West Central Minnesota

CITY           SKY/WX    TMP DP  RH WIND       PRES   REMARKS
FERGUS FALLS   PTSUNNY   27  19  74 NE13G21   30.03S WCI  16
WHEATON        MOSUNNY   28  21  74 N18G24    30.00F WCI  16
MORRIS         SUNNY     30  25  80 N16       29.96R WCI  19
ALEXANDRIA     CLOUDY    26  22  84 N12       29.95S WCI  16
ELBOW LAKE     FAIR      27  21  76 NE15G23   29.97F WCI  15
WADENA         CLOUDY    23  19  86 N13       29.97R WCI  11
GLENWOOD       MOSUNNY   27  23  86 N10       29.96R WCI  17
APPLETON       MOSUNNY   32  25  74 N14       29.95F WCI  22
BENSON         CLOUDY    34  25  69 NE9       29.98S WCI  26
ORTONVILLE       N/A     30  21  69 N16       29.96F WCI  19
MADISON        PTSUNNY   34  28  80 NE14      29.95F WCI  24
WILLMAR        CLOUDY    30  27  86 NE9       29.96F WCI  22
$$
MNZ033>034-036-042>043-049>051-058-059-231700-
   Central Minnesota

CITY           SKY/WX    TMP DP  RH WIND       PRES   REMARKS
ST CLOUD       CLOUDY    27  22  81 N9        29.96R WCI  18
SAUK CENTRE    CLOUDY    27  22  81 NE10      29.96R WCI  17
PAYNESVILLE    CLOUDY    27  24  86 N8        29.96S WCI  19
AITKIN         CLOUDY    27  19  74 N10       29.96R WCI  17
PINE RIVER     CLOUDY    25  19  80 N14       30.01R WCI  13
BRAINERD       CLOUDY    25  20  81 N8        29.98R WCI  16
STAPLES        CLOUDY    23  19  86 N9        29.98R WCI  13
LONG PRAIRIE   CLOUDY    27  23  86 N10G16    29.96R WCI  17
LITTLE FALLS   CLOUDY    27  21  80 N5        29.97R WCI  21
LITCHFIELD     PTSUNNY   30  27  86 N8        29.95S WCI  23
BUFFALO        CLOUDY    31  24  75 N7        29.96R WCI  24
MAPLE LAKE     CLOUDY    32  27  81 N10       29.96R WCI  23
HUTCHINSON     SUNNY     32  27  80 N7        29.94S WCI  26
$$
MNZ037-044-045-052-053-231700-
   East Central Minnesota

CITY           SKY/WX    TMP DP  RH WIND       PRES   REMARKS
PRINCETON      CLOUDY    28  25  86 N7        29.96R WCI  21
MORA           CLOUDY    27  23  86 NE6       29.97R WCI  20
CAMBRIDGE      PTSUNNY   30  21  69 N7        29.93R WCI  23
RUSH CITY      CLOUDY    28  23  80 N8        29.95R WCI  20
MOOSE LAKE     CLOUDY    27  21  80 N7        29.94S WCI  19
HINCKLEY       CLOUDY    28  25  86 N7        29.96R WCI  21
CLOQUET        CLOUDY    25  19  80 NW15      29.93S WCI  12
MCGREGOR       CLOUDY    27  21  80 N10       29.96F WCI  17
$$
MNZ071>073-080-081-089-090-097-098-231700-
   Southwest Minnesota

CITY           SKY/WX    TMP DP  RH WIND       PRES   REMARKS
MONTEVIDEO     CLOUDY    30  27  86 NE10      29.96F WCI  21
GRANITE FALLS  CLOUDY    32  28  83 N12       29.95F WCI  23
CANBY          CLOUDY    31  27  84 NE10G17   29.95F WCI  23
MARSHALL       PTSUNNY   31  26  82 NE15      29.92F WCI  20
REDWOOD FALLS  CLOUDY    32  24  72 N9        29.93F WCI  24
OLIVIA         CLOUDY    32  28  86 N13       29.94S WCI  22
PIPESTONE      CLOUDY    30  25  80 NE13G18   29.87R WCI  20
WINDOM         CLOUDY    30  27  86 N15       29.89S WCI  19
WORTHINGTON    CLOUDY    31  26  82 NE21      29.86F WCI  18
JACKSON          N/A     32  28  86 NE15      29.88F WCI  22
TRACY          MOSUNNY   32  28  85 NE14      29.90F WCI  22
SLAYTON        CLOUDY    29  26  86 N12G20    29.89S WCI  20
$$
MNZ065>067-074>077-082>085-091>093-231700-
   South Central Minnesota

CITY           SKY/WX    TMP DP  RH WIND       PRES   REMARKS
MANKATO          N/A     32  27  81 NE14      29.91R WCI  22
NEW ULM        CLOUDY    32  25  74 NE13      29.90F WCI  22
ST JAMES       CLOUDY    30  27  86 NE9       29.92F WCI  22
FAIRMONT       CLOUDY    33  29  85 NE12      29.90F WCI  24
GLENCOE        MOSUNNY   34  29  82 N9        29.93R WCI  27
FARIBAULT      CLOUDY    34  28  80 N8        29.92R WCI  27
OWATONNA       CLOUDY    34  28  80 N8        29.90R WCI  27
WASECA         CLOUDY    34  30  86 NE10      29.92R WCI  26
ALBERT LEA     CLOUDY    34  30  86 N10       29.88R WCI  26
$$
MNZ078>079-086>088-094>096-231700-
   Southeast Minnesota

CITY           SKY/WX    TMP DP  RH WIND       PRES   REMARKS
ROCHESTER      CLOUDY    34  31  88 NE14      29.88R WCI  25
RED WING       CLOUDY    37  28  70 NE6       29.91R
STANTON        CLOUDY    34  29  83 NE12      29.90F WCI  26
DODGE CENTER   CLOUDY    34  30  86 NE8       29.88S WCI  27
WINONA         CLOUDY    37  32  81 NE6       29.90S
AUSTIN         CLOUDY    36  30  80 NE9       29.87S
PRESTON        CLOUDY    35  31  85 N12       29.87S WCI  26
$$
ABBREVIATIONS USED IN REMARKS
   TC - TEMPERATURES IN CELSIUS
  WCI - WIND CHILL INDEX
   HX - HEAT INDEX
  VSB - VISIBILITY
$$




USA.gov is the U.S. government's official web portal to all federal, state and local government web resources and services.